DL1AIE-13 Weather Reports


Display with metric or nautical units.
time (UTC)temp
F
wind
direction
speed
MPH
gust
MPH
rain 1hr
in
rain 24hr
in
rain mn
in
humidity
%
barometer
mb
20260507022732 49 293 4.0 7.0 0.00 0.02 0.00 96 1010.5
20260507021728 49 306 4.0 7.0 0.00 0.02 0.00 96 1010.4
20260507020725 49 304 4.0 6.0 0.00 0.02 0.00 95 1010.4
20260507015721 49 315 3.0 7.0 0.00 0.02 0.00 94 1010.2
20260507014717 49 309 4.0 6.0 0.00 0.02 0.00 94 1010.3
20260507013733 50 306 4.0 7.0 0.00 0.02 0.00 92 1010.3
20260507012731 50 301 3.0 4.0 0.00 0.02 0.00 92 1010.1
20260507011727 50 301 3.0 6.0 0.00 0.02 0.00 91 1010.1
20260507010723 50 309 2.0 2.0 0.00 0.02 0.00 91 1010.1
20260507005719 50 302 2.0 4.0 0.00 0.02 0.00 90 1010.1
20260507004736 50 292 2.0 4.0 0.00 0.02 0.00 89 1009.9
20260507003732 50 304 4.0 6.0 0.00 0.02 0.00 89 1009.9
20260507002729 50 317 3.0 4.0 0.00 0.03 0.00 88 1009.9
20260507001725 51 317 5.0 8.0 0.00 0.03 0.00 88 1009.8
20260507000721 51 309 4.0 7.0 0.00 0.04 0.00 88 1009.8
20260506235718 51 316 2.0 4.0 0.00 0.05 0.00 89 1009.8
20260506234734 51 308 4.0 7.0 0.00 0.07 0.00 89 1009.8
20260506233731 51 315 3.0 7.0 0.00 0.07 0.00 88 1009.8
20260506232728 51 315 3.0 6.0 0.00 0.08 0.00 88 1009.7
20260506231724 51 311 5.0 9.0 0.00 0.08 0.00 88 1009.5
20260506230721 51 309 4.0 8.0 0.00 0.08 0.00 89 1009.5
20260506225721 51 306 5.0 7.0 0.00 0.08 0.00 88 1009.4
20260506224734 52 302 6.0 10.0 0.00 0.09 0.00 88 1009.3
20260506223730 52 312 5.0 8.0 0.00 0.09 0.00 87 1009.3
20260506222728 52 308 5.0 11.0 0.00 0.09 0.00 88 1009.1
20260506221728 52 303 5.0 8.0 0.00 0.09 0.00 88 1009.0
20260506220720 52 304 6.0 9.0 0.00 0.09 0.00 89 1009.0
20260506215717 53 303 4.0 7.0 0.00 0.09 0.09 90 1009.0
20260506214733 53 300 4.0 7.0 0.00 0.09 0.09 91 1008.9
20260506213730 53 311 2.0 4.0 0.00 0.09 0.09 91 1008.9
20260506212726 53 323 3.0 4.0 0.00 0.09 0.09 90 1008.8
20260506211723 53 318 3.0 6.0 0.00 0.09 0.09 90 1008.8
20260506210719 53 320 4.0 7.0 0.00 0.09 0.09 91 1008.6
20260506205715 54 323 4.0 6.0 0.00 0.09 0.09 92 1008.7
20260506204733 54 304 4.0 6.0 0.00 0.09 0.09 92 1008.6
20260506203729 54 295 3.0 6.0 0.00 0.09 0.09 92 1008.6
20260506202725 54 294 4.0 8.0 0.00 0.09 0.09 92 1008.4
20260506201721 54 278 3.0 4.0 0.00 0.09 0.09 92 1008.2
20260506200718 54 274 5.0 8.0 0.00 0.09 0.09 91 1008.2
20260506195735 54 271 4.0 8.0 0.00 0.09 0.09 92 1008.2
20260506194731 54 277 3.0 6.0 0.00 0.09 0.09 92 1008.0
20260506193727 54 276 4.0 8.0 0.00 0.09 0.09 92 1007.8
20260506192728 55 290 4.0 6.0 0.00 0.09 0.09 92 1007.7
20260506191720 55 284 5.0 7.0 0.00 0.09 0.09 92 1007.5
20260506190716 55 284 5.0 10.0 0.00 0.09 0.09 92 1007.5
20260506185733 55 300 5.0 9.0 0.00 0.09 0.09 93 1007.3
20260506184741 55 292 2.0 3.0 0.00 0.09 0.09 94 1007.4
20260506183726 55 294 2.0 3.0 0.00 0.09 0.09 94 1007.1
20260506182722 55 311 4.0 7.0 0.00 0.09 0.09 94 1006.9
20260506181719 55 313 5.0 9.0 0.01 0.09 0.09 93 1007.0
20260506180735 56 308 6.0 11.0 0.01 0.10 0.09 91 1006.9
20260506175732 57 297 7.0 11.0 0.01 0.10 0.09 90 1006.8
20260506174728 57 292 6.0 9.0 0.01 0.10 0.09 91 1006.6
20260506173725 57 302 4.0 7.0 0.01 0.11 0.09 91 1006.4
20260506172721 57 303 5.0 7.0 0.01 0.11 0.09 91 1006.3
20260506171717 57 308 7.0 14.0 0.00 0.10 0.08 89 1006.0
20260506170734 60 299 9.0 14.0 0.00 0.10 0.08 80 1006.0
20260506165730 60 286 8.0 14.0 0.00 0.10 0.08 79 1006.1
20260506164727 60 266 7.0 11.0 0.00 0.11 0.08 78 1005.9
20260506163723 60 277 9.0 13.0 0.00 0.12 0.08 76 1006.0
20260506162719 61 280 10.0 14.0 0.00 0.13 0.08 76 1006.0
20260506161716 61 270 9.0 15.0 0.00 0.13 0.08 75 1006.0
20260506160735 62 289 8.0 11.0 0.00 0.14 0.08 72 1005.8
20260506155729 63 288 7.0 11.0 0.00 0.15 0.08 71 1005.9
20260506154725 63 260 7.0 11.0 0.00 0.16 0.08 70 1005.7
20260506153721 63 243 7.0 13.0 0.00 0.16 0.08 68 1005.6
20260506152718 63 240 9.0 15.0 0.00 0.16 0.08 68 1005.6
20260506151738 64 250 8.0 11.0 0.00 0.16 0.08 67 1005.5
20260506150731 64 258 7.0 11.0 0.00 0.16 0.08 67 1005.5
20260506145728 64 244 7.0 11.0 0.00 0.16 0.08 65 1005.5
20260506144724 64 257 5.0 9.0 0.00 0.16 0.08 66 1005.5
20260506143720 64 243 7.0 13.0 0.00 0.16 0.08 66 1005.6
20260506142716 64 246 7.0 9.0 0.00 0.16 0.08 65 1005.4
20260506141733 65 244 7.0 9.0 0.00 0.16 0.08 65 1005.4
20260506140729 65 219 7.0 11.0 0.00 0.16 0.08 63 1005.5
20260506135725 65 261 6.0 13.0 0.00 0.16 0.08 62 1005.5
20260506134727 65 245 9.0 14.0 0.00 0.16 0.08 61 1005.4
20260506133721 65 249 8.0 14.0 0.00 0.16 0.08 63 1005.5
20260506132735 65 244 8.0 13.0 0.00 0.16 0.08 62 1005.6
20260506131731 66 269 7.0 15.0 0.00 0.16 0.08 61 1005.4
20260506130727 65 229 6.0 13.0 0.00 0.16 0.08 63 1005.5
20260506125724 65 244 7.0 10.0 0.00 0.16 0.08 64 1005.6
20260506124720 64 253 8.0 14.0 0.00 0.16 0.08 66 1005.7
20260506123717 64 254 7.0 15.0 0.00 0.16 0.08 66 1005.8
20260506122734 64 240 10.0 18.0 0.00 0.16 0.08 65 1005.7
20260506121729 63 256 10.0 16.0 0.00 0.16 0.08 66 1005.8
20260506120726 65 245 6.0 11.0 0.00 0.16 0.08 66 1005.8
20260506115723 63 258 9.0 13.0 0.00 0.16 0.08 68 1005.7
20260506114719 64 236 9.0 14.0 0.00 0.16 0.08 67 1005.7
20260506113736 63 239 8.0 14.0 0.00 0.16 0.08 69 1005.7
20260506112732 63 237 10.0 14.0 0.00 0.16 0.08 69 1005.8
20260506111728 62 245 8.0 13.0 0.00 0.16 0.08 72 1005.8
20260506110724 62 243 6.0 10.0 0.00 0.16 0.08 71 1005.9
20260506105721 62 244 5.0 11.0 0.00 0.16 0.08 73 1006.0
20260506104717 63 233 3.0 6.0 0.00 0.16 0.08 72 1005.9
20260506103734 61 267 4.0 8.0 0.00 0.16 0.08 75 1005.9
20260506102730 61 257 4.0 7.0 0.00 0.16 0.08 75 1006.0
20260506101726 61 246 4.0 7.0 0.00 0.16 0.08 76 1006.1
20260506100723 61 244 6.0 9.0 0.00 0.16 0.08 75 1006.2
20260506095719 61 250 6.0 10.0 0.00 0.16 0.08 75 1006.1
20260506094716 62 231 5.0 10.0 0.00 0.16 0.08 74 1006.1
20260506093732 61 261 6.0 14.0 0.00 0.16 0.08 76 1006.2
20260506092729 61 246 5.0 10.0 0.00 0.16 0.08 78 1006.1
20260506091725 60 246 7.0 11.0 0.00 0.16 0.08 77 1006.1
20260506090721 61 252 7.0 10.0 0.00 0.16 0.08 77 1006.1
20260506085718 61 250 9.0 13.0 0.00 0.16 0.08 76 1006.2
20260506084734 60 247 7.0 10.0 0.00 0.16 0.08 80 1006.1
20260506083730 59 262 5.0 8.0 0.00 0.16 0.08 81 1005.9
20260506082727 59 263 7.0 11.0 0.00 0.16 0.08 81 1006.0
20260506081723 59 259 6.0 9.0 0.00 0.16 0.08 82 1005.9
20260506080720 60 267 6.0 13.0 0.00 0.16 0.08 84 1005.9
20260506072725 58 224 6.0 10.0 0.00 0.16 0.08 89 1006.0
20260506071722 58 245 7.0 10.0 0.00 0.16 0.08 89 1005.9
20260506070719 58 247 9.0 13.0 0.00 0.16 0.08 89 1006.0
20260506061721 57 215 5.0 9.0 0.00 0.16 0.08 92 1005.8
20260506060719 57 238 7.0 11.0 0.00 0.16 0.08 91 1005.7
20260506050716 55 218 2.0 4.0 0.00 0.16 0.08 96 1006.0
20260506044729 54 256 1.0 3.0 0.00 0.16 0.08 98 1005.8
20260506043725 54 274 1.0 2.0 0.00 0.16 0.08 98 1005.9
20260506042722 54 274 2.0 3.0 0.01 0.16 0.08 98 1005.9
20260506041718 54 264 2.0 4.0 0.01 0.16 0.08 98 1005.7
20260506040735 54 271 3.0 4.0 0.01 0.16 0.08 98 1005.7
20260506035731 54 256 3.0 7.0 0.01 0.16 0.08 98 1005.9
20260506034727 54 267 4.0 8.0 0.01 0.16 0.08 98 1006.0
20260506033724 55 267 3.0 4.0 0.01 0.16 0.08 97 1005.9
20260506032720 55 255 4.0 6.0 0.00 0.15 0.07 97 1005.9
20260506031717 55 246 3.0 7.0 0.00 0.15 0.07 97 1005.8
20260506030733 55 243 4.0 8.0 0.00 0.15 0.07 97 1005.9
20260506025730 55 240 4.0 7.0 0.00 0.15 0.07 97 1006.0
20260506024727 55 231 3.0 7.0 0.00 0.15 0.07 97 1006.0
20260506023723 55 246 4.0 7.0 0.00 0.15 0.07 97 1006.0